Weather History for Clinton, IA

Change the Weather History Date:

Monday, October 29, 2012

  Actual Average Record
Temperature  
Mean Temperature 38 °F -  
Max Temperature 51 °F 58 °F 80 °F (2004)
Min Temperature 24 °F 37 °F 17 °F (1952)
Degree Days  
Heating Degree Days 28    
Moisture  
Dew Point 23 °F    
Average Humidity 61    
Maximum Humidity 93    
Minimum Humidity 30    
Precipitation  
Precipitation 0.00 in - - ()
Sea Level Pressure  
Sea Level Pressure 30.30 in    
Wind  
Wind Speed 7 mph (NNE)    
Max Wind Speed 13 mph    
Max Gust Speed -    
Visibility 10 miles    
Events      
Averages and records for this station are not official NWS values.
T = Trace of Precipitation, MM = Missing Value Source: NWS Daily Summary

Daily Weather History Graph

Daily Weather History Graph

Search for Another Location

Airport:

Trip Planner

Search our weather history database for the weather conditions in past years. The results will help you decide how hot, cold, wet, or windy it might be!

Date:

Astronomy

Oct. 29, 2012 Rise Set
Actual Time 7:30 AM CDT 5:58 PM CDT
Civil Twilight 7:01 AM CDT 6:27 PM CDT
Nautical Twilight 6:29 AM CDT 7:00 PM CDT
Astronomical Twilight 5:56 AM CDT 7:32 PM CDT
Moon 5:50 PM CDT (10/29) 7:21 AM CDT (10/29)
Length of Visible Light 11h 25m
Length of Day
10h 28m
Full, 100% of the Moon is Illuminated
Oct 29
Full
Oct 29
Full
Nov 6
Last Quarter
Nov 13
New
Nov 20
First Quarter

Hourly Weather History & Observations

Time (CDT) Temp. Windchill Dew Point Humidity Pressure Visibility Wind Dir Wind Speed Gust Speed Precip Events Conditions
12:15 AM 30.2 °F 24.3 °F 24.8 °F 80% 30.35 in 10.0 mi NE 5.8 mph - N/A   Clear
12:35 AM 28.4 °F 22.2 °F 23.0 °F 80% 30.34 in 10.0 mi NE 5.8 mph - N/A   Clear
12:55 AM 28.4 °F 23.3 °F 23.0 °F 80% 30.34 in 10.0 mi NE 4.6 mph - N/A   Clear
1:15 AM 28.4 °F 22.2 °F 21.2 °F 74% 30.35 in 10.0 mi NNE 5.8 mph - N/A   Clear
1:35 AM 26.6 °F 21.2 °F 21.2 °F 80% 30.35 in 10.0 mi NNE 4.6 mph - N/A   Clear
1:55 AM 26.6 °F 22.6 °F 21.2 °F 80% 30.35 in 10.0 mi NE 3.5 mph - N/A   Clear
2:15 AM 26.6 °F 22.6 °F 21.2 °F 80% 30.35 in 10.0 mi NE 3.5 mph - N/A   Clear
2:35 AM 28.4 °F 23.3 °F 23.0 °F 80% 30.35 in 10.0 mi NE 4.6 mph - N/A   Clear
2:55 AM 28.4 °F 24.6 °F 23.0 °F 80% 30.35 in 10.0 mi NE 3.5 mph - N/A   Clear
3:15 AM 26.6 °F 20.0 °F 21.2 °F 80% 30.35 in 10.0 mi North 5.8 mph - N/A   Clear
3:35 AM 26.6 °F 18.2 °F 21.2 °F 80% 30.35 in 10.0 mi North 8.1 mph - N/A   Clear
3:55 AM 26.6 °F 17.5 °F 21.2 °F 80% 30.35 in 10.0 mi North 9.2 mph - N/A   Clear
4:15 AM 26.6 °F 17.5 °F 21.2 °F 80% 30.34 in 10.0 mi North 9.2 mph - N/A   Clear
4:35 AM 26.6 °F 16.8 °F 23.0 °F 86% 30.35 in 10.0 mi North 10.4 mph - N/A   Clear
4:55 AM 26.6 °F 16.8 °F 23.0 °F 86% 30.35 in 10.0 mi North 10.4 mph - N/A   Clear
5:15 AM 26.6 °F 17.5 °F 21.2 °F 80% 30.35 in 10.0 mi North 9.2 mph - N/A   Clear
5:55 AM 26.6 °F 17.5 °F 21.2 °F 80% 30.35 in 10.0 mi North 9.2 mph - N/A   Clear
6:15 AM 26.6 °F 19.1 °F 21.2 °F 80% 30.36 in 10.0 mi North 6.9 mph - N/A   Clear
6:35 AM 26.6 °F 17.5 °F 21.2 °F 80% 30.36 in 10.0 mi North 9.2 mph - N/A   Clear
6:55 AM 24.8 °F 16.1 °F 21.2 °F 86% 30.36 in 10.0 mi North 8.1 mph - N/A   Clear
7:15 AM 24.8 °F 20.5 °F 19.4 °F 80% 30.36 in 10.0 mi NNE 3.5 mph - N/A   Clear
7:35 AM 24.8 °F 16.1 °F 21.2 °F 86% 30.37 in 10.0 mi North 8.1 mph - N/A   Clear
7:55 AM 26.6 °F 19.1 °F 23.0 °F 86% 30.37 in 10.0 mi North 6.9 mph - N/A   Clear
8:15 AM 26.6 °F 18.2 °F 24.8 °F 93% 30.38 in 10.0 mi North 8.1 mph - N/A   Clear
8:35 AM 28.4 °F 20.4 °F 24.8 °F 86% 30.38 in 9.0 mi North 8.1 mph - N/A   Clear
8:55 AM 30.2 °F 23.4 °F 26.6 °F 86% 30.38 in 10.0 mi North 6.9 mph - N/A   Clear
9:35 AM 35.6 °F 30.7 °F 28.4 °F 75% 30.38 in 10.0 mi North 5.8 mph - N/A   Clear
9:55 AM 37.4 °F 32.8 °F 30.2 °F 75% 30.38 in 10.0 mi NNE 5.8 mph - N/A   Clear
10:15 AM 41.0 °F 35.8 °F 30.2 °F 65% 30.37 in 10.0 mi NE 8.1 mph - N/A   Clear
10:35 AM 42.8 °F 38.0 °F 28.4 °F 57% 30.37 in 10.0 mi ENE 8.1 mph - N/A   Clear
10:55 AM 44.6 °F 40.2 °F 28.4 °F 53% 30.37 in 10.0 mi ENE 8.1 mph - N/A   Clear
11:15 AM 44.6 °F 38.8 °F 26.6 °F 49% 30.36 in 10.0 mi NE 11.5 mph - N/A   Clear
11:35 AM 46.4 °F 41.5 °F 26.6 °F 46% 30.36 in 10.0 mi ENE 10.4 mph - N/A   Clear
11:55 AM 46.4 °F 40.7 °F 24.8 °F 43% 30.36 in 10.0 mi ENE 12.7 mph - N/A   Clear
12:15 PM 46.4 °F 41.5 °F 26.6 °F 46% 30.35 in 10.0 mi ENE 10.4 mph - N/A   Clear
12:35 PM 48.2 °F - 26.6 °F 43% 30.34 in 10.0 mi ENE 10.4 mph - N/A   Clear
12:55 PM 48.2 °F - 24.8 °F 40% 30.34 in 10.0 mi NE 8.1 mph - N/A   Clear
1:15 PM 48.2 °F - 24.8 °F 40% 30.32 in 10.0 mi NE 9.2 mph - N/A   Clear
1:35 PM 48.2 °F - 23.0 °F 37% 30.32 in 10.0 mi NNE 5.8 mph - N/A   Clear
1:55 PM 48.2 °F - 21.2 °F 34% 30.31 in 10.0 mi ENE 9.2 mph - N/A   Clear
2:15 PM 50.0 °F - 21.2 °F 32% 30.30 in 2.5 mi NE 9.2 mph - N/A   Clear
2:35 PM 50.0 °F - 23.0 °F 35% 30.29 in 3.0 mi NE 5.8 mph - N/A   Clear
2:55 PM 50.0 °F - 21.2 °F 32% 30.28 in 2.0 mi NNE 3.5 mph - N/A   Clear
3:15 PM 51.8 °F - 21.2 °F 30% 30.28 in 4.0 mi NNE 9.2 mph - N/A   Clear
3:35 PM 51.8 °F - 21.2 °F 30% 30.28 in 10.0 mi NNE 6.9 mph - N/A   Clear
3:55 PM 51.8 °F - 23.0 °F 33% 30.27 in 10.0 mi North 6.9 mph - N/A   Clear
4:15 PM 51.8 °F - 21.2 °F 30% 30.26 in 10.0 mi North 9.2 mph - N/A   Clear
4:35 PM 50.0 °F - 21.2 °F 32% 30.26 in 10.0 mi NNE 10.4 mph - N/A   Clear
4:55 PM 50.0 °F - 21.2 °F 32% 30.26 in 10.0 mi NNE 10.4 mph - N/A   Clear
5:15 PM 48.2 °F - 23.0 °F 37% 30.25 in 10.0 mi North 9.2 mph - N/A   Clear
5:35 PM 46.4 °F 42.4 °F 21.2 °F 37% 30.25 in 10.0 mi North 8.1 mph - N/A   Clear
5:55 PM 42.8 °F 38.0 °F 23.0 °F 46% 30.24 in 10.0 mi North 8.1 mph - N/A   Clear
6:15 PM 41.0 °F 35.8 °F 21.2 °F 45% 30.24 in 10.0 mi North 8.1 mph - N/A   Clear
6:35 PM 39.2 °F 33.6 °F 21.2 °F 49% 30.24 in 10.0 mi North 8.1 mph - N/A   Clear
6:55 PM 37.4 °F 30.8 °F 21.2 °F 52% 30.24 in 10.0 mi North 9.2 mph - N/A   Clear
7:15 PM 37.4 °F 30.8 °F 21.2 °F 52% 30.24 in 10.0 mi North 9.2 mph - N/A   Clear
7:35 PM 37.4 °F 30.3 °F 21.2 °F 52% 30.23 in 10.0 mi North 10.4 mph - N/A   Clear
7:55 PM 37.4 °F 29.8 °F 21.2 °F 52% 30.23 in 10.0 mi NNW 11.5 mph - N/A   Clear
8:15 PM 35.6 °F 28.0 °F 21.2 °F 56% 30.23 in 10.0 mi North 10.4 mph - N/A   Clear
8:35 PM 35.6 °F 28.0 °F 21.2 °F 56% 30.22 in 10.0 mi North 10.4 mph - N/A   Clear
8:55 PM 35.6 °F 27.5 °F 23.0 °F 60% 30.22 in 10.0 mi North 11.5 mph - N/A   Clear
9:15 PM 33.8 °F 25.8 °F 23.0 °F 65% 30.22 in 10.0 mi North 10.4 mph - N/A   Clear
9:35 PM 33.8 °F 26.4 °F 21.2 °F 60% 30.21 in 10.0 mi North 9.2 mph - N/A   Clear
9:55 PM 33.8 °F 25.8 °F 23.0 °F 65% 30.21 in 10.0 mi North 10.4 mph - N/A   Clear
10:15 PM 33.8 °F 25.8 °F 23.0 °F 65% 30.21 in 10.0 mi North 10.4 mph - N/A   Clear
10:35 PM 33.8 °F 25.8 °F 21.2 °F 60% 30.20 in 10.0 mi NNW 10.4 mph - N/A   Clear
10:55 PM 33.8 °F 25.8 °F 21.2 °F 60% 30.20 in 10.0 mi NNW 10.4 mph - N/A   Clear
11:15 PM 33.8 °F 25.3 °F 23.0 °F 65% 30.19 in 10.0 mi North 11.5 mph - N/A   Clear
11:35 PM 33.8 °F 25.3 °F 23.0 °F 65% 30.19 in 10.0 mi NNW 11.5 mph - N/A   Clear
11:55 PM 33.8 °F 25.8 °F 23.0 °F 65% 30.18 in 10.0 mi North 10.4 mph - N/A   Clear